Date String (YYYY-MM-DD hh:mm:ss) UTC,Instrument flags,absolute air pressure of the measurement (hPa),sample flow rate (lpm),inlet stack bypass flow (lpm),air temperature of the measurement (°C),ambient temperature measured by the external sensor (°C),aerosol sample conditioner tube jacket temperature (°C),OPC LED temperature (°C),internal box temperature (°C),relative humidity of the measurement (%),span deviation,mass concentration of particles derived from Lorenz-Mie calculation of OPC scattering (μg/m³),mass concentration of particles derived from Lorenz-Mie calculation of OPC scattering (μg/m³),mass concentration of particles derived from Lorenz-Mie calculation of OPC scattering (μg/m³)
DateTimeUTC,F1_M11,P_M11,Q1_M11,Q2_M11,T1_M11,T2_M11,T3_M11,T4_M11,T5_M11,U1_M11,ZSPAN_M11,X2_M11,X0_M11,X1_M11
2023-09-13 12:00:00,SystemResetWarning,0831.1,5.00,000.00,029.2,027.8,000.0,037.5,030.9,24.4,0000.8,0006.78,0013.73,0005.95
2023-09-13 12:01:00,SystemResetWarning,0831.1,4.99,000.00,029.2,027.8,000.0,037.5,030.9,24.4,0000.4,0006.76,0013.78,0005.94
2023-09-13 12:02:00,SystemResetWarning,0831.1,4.99,000.00,029.2,027.8,000.0,037.5,030.9,24.4,-000.1,0006.75,0013.04,0005.92
2023-09-13 12:03:00,SystemResetWarning,0831.1,5.00,000.00,029.3,027.8,000.0,037.5,030.9,24.4,0000.1,0006.74,0013.39,0005.90
2023-09-13 12:04:00,SystemResetWarning,0831.1,5.00,000.00,029.3,027.8,000.0,037.5,030.9,24.5,-000.2,0006.70,0013.59,0005.90
2023-09-13 12:05:00,SystemResetWarning,0831.2,5.00,000.00,029.3,027.8,000.0,037.6,030.9,24.5,-000.1,0006.68,0013.42,0005.89
2023-09-13 12:06:00,SystemResetWarning,0831.1,5.00,000.00,029.3,027.8,000.0,037.6,030.9,24.5,-000.3,0006.65,0013.12,0005.88
2023-09-13 12:07:00,SystemResetWarning,0831.1,5.00,000.00,029.3,027.8,000.0,037.6,030.9,24.5,-000.6,0006.64,0012.52,0005.89
2023-09-13 12:08:00,SystemResetWarning,0831.1,5.00,000.00,029.3,027.8,000.0,037.6,030.9,24.5,-000.8,0006.65,0012.51,0005.88
2023-09-13 12:09:00,SystemResetWarning,0831.1,5.01,000.00,029.3,027.8,000.0,037.6,030.9,24.6,-000.7,0006.63,0012.42,0005.88
2023-09-13 12:10:00,SystemResetWarning,0831.1,5.01,000.00,029.3,027.7,000.0,037.6,030.9,24.7,-000.9,0006.67,0012.61,0005.90
2023-09-13 12:11:00,SystemResetWarning,0831.1,5.00,000.00,029.3,027.7,000.0,037.6,030.9,24.6,-001.0,0006.71,0012.59,0005.89
2023-09-13 12:12:00,SystemResetWarning,0831.1,4.99,000.00,029.3,027.7,000.0,037.6,030.9,24.6,-001.0,0006.72,0013.54,0005.90
2023-09-13 12:13:00,SystemResetWarning,0831.1,5.00,000.00,029.3,027.7,000.0,037.6,030.8,24.6,-000.9,0006.73,0013.92,0005.92
2023-09-13 12:14:00,SystemResetWarning,0831.1,5.01,000.00,029.3,027.7,000.0,037.6,030.8,24.6,-001.1,0006.73,0013.65,0005.93
2023-09-13 12:15:00,SystemResetWarning,0831.1,5.00,000.00,029.3,027.7,000.0,037.6,030.8,24.6,-000.8,0006.80,0013.16,0005.92
2023-09-13 12:16:00,SystemResetWarning,0831.1,4.99,000.00,029.3,027.7,000.0,037.6,030.8,24.6,-000.9,0006.81,0013.19,0005.92
2023-09-13 12:17:00,SystemResetWarning,0831.1,4.99,000.00,029.3,027.7,000.0,037.6,030.8,24.5,-001.2,0006.77,0013.04,0005.89
2023-09-13 12:18:00,SystemResetWarning,0831.1,4.99,000.00,029.3,027.7,000.0,037.6,030.8,24.4,-001.3,0006.75,0013.05,0005.86
2023-09-13 12:19:00,SystemResetWarning,0831.1,5.00,000.00,029.3,027.7,000.0,037.6,030.8,24.3,-001.3,0006.76,0013.24,0005.83
2023-09-13 12:20:00,SystemResetWarning,0831.1,5.00,000.00,029.3,027.7,000.0,037.6,030.8,24.1,-001.2,0006.70,0013.25,0005.80
2023-09-13 12:21:00,SystemResetWarning,0831.1,5.01,000.00,029.3,027.7,000.0,037.6,030.8,23.8,-000.7,0006.61,0013.54,0005.74
2023-09-13 12:22:00,SystemResetWarning,0831.1,5.01,000.00,029.3,027.7,000.0,037.6,030.8,23.7,-000.3,0006.50,0012.68,0005.67
2023-09-13 12:23:00,SystemResetWarning,0831.2,5.00,000.00,029.3,027.7,000.0,037.6,030.8,23.8,0000.2,0006.49,0011.69,0005.62
2023-09-13 12:24:00,SystemResetWarning,0831.2,4.99,000.00,029.3,027.7,000.0,037.6,030.8,23.9,0000.3,0006.43,0011.53,0005.56
2023-09-13 12:25:00,SystemResetWarning,0831.2,4.99,000.00,029.3,027.7,000.0,037.6,030.8,23.9,0000.5,0006.35,0012.28,0005.51
2023-09-13 12:26:00,SystemResetWarning,0831.2,5.00,000.00,029.3,027.7,000.0,037.6,030.8,23.8,-000.1,0006.23,0012.61,0005.46
2023-09-13 12:27:00,SystemResetWarning,0831.2,5.00,000.00,029.3,027.7,000.0,037.6,030.8,23.7,0000.0,0006.16,0012.51,0005.42
2023-09-13 12:28:00,SystemResetWarning,0831.2,5.01,000.00,029.3,027.7,000.0,037.6,030.8,23.7,-000.1,0006.16,0012.58,0005.42
2023-09-13 12:29:00,SystemResetWarning,0831.3,5.00,000.00,029.3,027.6,000.0,037.6,030.8,23.8,-000.5,0006.15,0012.87,0005.42
2023-09-13 12:30:00,SystemResetWarning,0831.2,5.00,000.00,029.3,027.6,000.0,037.6,030.8,23.8,-001.0,0006.08,0012.97,0005.41
2023-09-13 12:31:00,SystemResetWarning,0831.2,5.00,000.00,029.3,027.6,000.0,037.6,030.8,23.9,-000.9,0006.09,0013.28,0005.41
2023-09-13 12:32:00,SystemResetWarning,0831.2,4.99,000.00,029.3,027.6,000.0,037.6,030.8,23.9,-001.6,0006.12,0013.74,0005.42
2023-09-13 12:33:00,SystemResetWarning,0831.2,4.99,000.00,029.3,027.6,000.0,037.6,030.8,23.9,-002.0,0006.15,0014.28,0005.44
2023-09-13 12:34:00,SystemResetWarning,0831.2,5.00,000.00,029.3,027.6,000.0,037.6,030.8,23.8,-002.4,0006.11,0014.67,0005.43
2023-09-13 12:35:00,SystemResetWarning,0831.2,5.00,000.00,029.2,027.6,000.0,037.6,030.8,23.6,-002.2,0006.10,0014.33,0005.43
2023-09-13 12:36:00,SystemResetWarning,0831.2,5.00,000.00,029.2,027.6,000.0,037.6,030.8,23.7,-002.3,0006.13,0013.75,0005.43
2023-09-13 12:37:00,SystemResetWarning,0831.2,5.00,000.00,029.2,027.6,000.0,037.6,030.7,23.5,-002.2,0006.15,0012.97,0005.44
2023-09-13 12:38:00,SystemResetWarning,0831.3,5.00,000.00,029.2,027.6,000.0,037.6,030.7,23.4,-002.0,0006.19,0013.16,0005.46
2023-09-13 12:39:00,SystemResetWarning,0831.2,5.00,000.00,029.2,027.6,000.0,037.6,030.8,23.4,-001.4,0006.25,0013.68,0005.48
2023-09-13 12:40:00,SystemResetWarning,0831.2,5.00,000.00,029.2,027.6,000.0,037.6,030.8,23.2,-000.9,0006.28,0013.76,0005.48
2023-09-13 12:41:00,SystemResetWarning,0831.2,5.01,000.00,029.2,027.6,000.0,037.6,030.7,23.0,-000.6,0006.29,0013.91,0005.51
2023-09-13 12:42:00,SystemResetWarning,0831.2,5.00,000.00,029.2,027.6,000.0,037.6,030.7,23.0,-000.3,0006.29,0014.11,0005.52
2023-09-13 12:43:00,SystemResetWarning,0831.2,5.00,000.00,029.2,027.6,000.0,037.6,030.7,22.8,-000.2,0006.29,0013.30,0005.53
2023-09-13 12:44:00,SystemResetWarning,0831.2,5.00,000.00,029.2,027.6,000.0,037.6,030.7,22.7,0000.2,0006.32,0012.89,0005.54
2023-09-13 12:45:00,SystemResetWarning,0831.2,5.00,000.00,029.2,027.6,000.0,037.6,030.7,22.6,0000.6,0006.32,0013.08,0005.54
2023-09-13 12:46:00,SystemResetWarning,0831.2,5.00,000.00,029.2,027.6,000.0,037.6,030.7,22.5,0000.8,0006.38,0013.26,0005.56
2023-09-13 12:47:00,SystemResetWarning,0831.2,5.00,000.00,029.2,027.6,000.0,037.6,030.7,22.4,0000.6,0006.39,0013.38,0005.58
2023-09-13 12:48:00,SystemResetWarning,0831.3,5.01,000.00,029.2,027.6,000.0,037.6,030.8,22.4,0000.9,0006.38,0013.84,0005.59
2023-09-13 12:49:00,SystemResetWarning,0831.3,5.00,000.00,029.2,027.6,000.0,037.6,030.7,22.5,0001.1,0006.35,0013.75,0005.57
2023-09-13 12:50:00,SystemResetWarning,0831.3,5.01,000.00,029.2,027.6,000.0,037.6,030.7,22.7,0000.8,0006.30,0013.57,0005.55
2023-09-13 12:51:00,SystemResetWarning,0831.3,5.01,000.00,029.2,027.6,000.0,037.6,030.8,22.7,0000.5,0006.28,0013.50,0005.56
2023-09-13 12:52:00,SystemResetWarning,0831.3,5.00,000.00,029.2,027.6,000.0,037.6,030.8,22.8,0000.9,0006.30,0013.70,0005.56
2023-09-13 12:53:00,SystemResetWarning,0831.3,5.00,000.00,029.2,027.6,000.0,037.6,030.7,22.8,0000.6,0006.33,0013.28,0005.57
2023-09-13 12:54:00,SystemResetWarning,0831.3,4.99,000.00,029.2,027.6,000.0,037.6,030.7,22.8,0000.0,0006.30,0013.68,0005.55
2023-09-13 12:55:00,SystemResetWarning,0831.3,5.00,000.00,029.2,027.6,000.0,037.6,030.7,22.8,-000.5,0006.26,0013.95,0005.56
2023-09-13 12:56:00,SystemResetWarning,0831.3,5.00,000.00,029.2,027.6,000.0,037.6,030.7,22.8,-000.8,0006.28,0013.63,0005.57
2023-09-13 12:57:00,SystemResetWarning,0831.3,5.00,000.00,029.2,027.6,000.0,037.6,030.7,22.6,-000.7,0006.28,0013.56,0005.58
2023-09-13 12:58:00,SystemResetWarning,0831.3,4.99,000.00,029.2,027.6,000.0,037.6,030.7,22.5,-000.7,0006.28,0013.88,0005.60
2023-09-13 12:59:00,SystemResetWarning,0831.3,5.00,000.00,029.2,027.6,000.0,037.6,030.7,22.4,-001.2,0006.29,0013.44,0005.62
